Location: Staunton
(38.1490°N, 79.0720°W)
Time: 21:42:11
(UTC-05:00)

ISS - Pass Details

Date: 24 February 2021
Orbit: 417 x 422 km, 51.6° (Epoch: 25 February)

Event Time Altitude Azimuth Distance (km) Brightness Sun altitude
Exits shadow 05:47:30 19° 313° (NW) 1,050 -2.2 -13.9°
Maximum altitude 05:48:16 21° 333° (NNW) 999 -2.1 -13.8°
Drops below altitude 10° 05:50:54 10° 25° (NNE) 1,496 -0.7 -13.3°
Sets 05:53:21 0° 42° (NE) 2,362 0.7 -12.8°
